Home > Weather > Cocoa Beach > Past weeks

Flag for USA Past Weather in Cocoa Beach, Florida, USA — Yesterday and Last 2 Weeks

Now
84 °F

Clear.


Feels Like: 93 °F
Forecast: 79 / 90 °F
Wind: 10 mph from Southeast

Location: Cocoa / Patrick Air Force Base

Current Time: Jul 25, 2016 at 10:46:51 PM

Latest Report: Jul 25, 2016 at 9:58 PM


Visibility: 10 mi

Pressure: 30.06 "Hg

Humidity: 75%

Dew Point: 76 °F

Location of Cocoa BeachLocation

Past Weather in Cocoa Beach — Graph

°F

Cocoa Beach Temperature Yesterday

Maximum temperature yesterday: 90 °F (at 2:58 PM)
Minimum temperature yesterday: 79 °F (at 6:58 AM)
Average temperature yesterday: 84 °F

High & Low Weather Summary for the Past Weeks

 TemperatureHumidityPressure
High90 °F (Jul 19, 1:58 PM)91% (Jul 12, 5:58 AM)30.23 "Hg (Jul 12, 5:58 AM)
Low78 °F (Jul 23, 6:58 AM)60% (Jul 23, 2:58 PM)29.99 "Hg (Jul 23, 6:58 PM)
Average85 °F75%30.11 "Hg
* Reported Jul 10 8:58 PM — Jul 25 8:58 PM, Cocoa Beach, Weather by CustomWeather, © 2016

Note: Actual official high and low records may vary slightly from our data, if they occured in-between our weather recording intervals... More about our weather records

Advertising

Cocoa Beach Weather History for the Previous 24 Hours

Scroll right to see more
 ConditionsComfort  
Time TempWeatherWind HumidityBarometerVisibility
8:58 PM
Mon, Jul 25
85 °FSunny.16 mph74%30.05 "Hg10 mi
7:58 PM86 °FSunny.14 mph71%30.05 "Hg10 mi
6:58 PM86 °FPassing clouds.13 mph68%30.04 "Hg10 mi
5:58 PM89 °FSunny.15 mph63%30.03 "Hg10 mi
4:58 PM89 °FSunny.14 mph61%30.03 "Hg10 mi
3:58 PM89 °FSunny.14 mph61%30.04 "Hg10 mi
2:58 PM89 °FSunny.13 mph60%30.06 "Hg10 mi
1:58 PM89 °FSunny.9 mph63%30.07 "Hg10 mi
12:58 PM89 °FSunny.10 mph62%30.09 "Hg10 mi
11:58 AM87 °FSunny.9 mph64%30.11 "Hg10 mi
10:58 AM87 °FSunny.8 mph63%30.11 "Hg10 mi
9:58 AM86 °FSunny.7 mph66%30.10 "Hg10 mi
8:58 AM84 °FSunny.5 mph69%30.09 "Hg10 mi
7:58 AM82 °FSunny.6 mph74%30.07 "Hg10 mi
6:58 AM79 °FClear.3 mph77%30.06 "Hg10 mi
5:58 AM80 °FPassing clouds.2 mph75%30.06 "Hg10 mi
4:58 AM79 °FClear.7 mph79%30.05 "Hg10 mi
3:58 AM79 °FClear.5 mph82%30.05 "Hg10 mi
2:58 AM79 °FClear.6 mph82%30.05 "Hg10 mi
1:58 AM80 °FClear.1 mph80%30.07 "Hg10 mi
12:58 AM81 °FClear.6 mph78%30.07 "Hg10 mi
11:58 PM
Sun, Jul 24
81 °FClear.3 mph74%30.08 "Hg10 mi
10:58 PM82 °FClear.6 mph77%30.08 "Hg10 mi
Weather by CustomWeather, © 2016

See weather overviewHow to use our weather pages